BLOCK DM-SL R/B, 44904

Orbit data source: Space-Track

BLOCK DM-SL R/B, 44904 is space debris in GEO originally from a launch on Tue, 24 Dec 2019 UTC launched from the Tyuratam Missile And Space Complex (TTMTR). Debris objects in space refer to the collection of defunct objects orbiting the Earth. Examples of debris include non-operational satellites, rocket bodies, and fragments generated from explosions, collisions, or faulty payload assembly.

Loading next visibility...
Identifier
44904, 2019-095B
Orbit
GEO
Country
Flag of CISCIS
Related business
Manufacturer
RKKE
Mission
Spacecraft
Bus & Motor
BLOK DM2, 11D58M
Mass
2,440 kg wet, 2,440 kg dry
Launch date (UTC)
2019-12-24 (7 years ago)
Launch vehicle
Unknown
Launch site
Tyuratam Missile And Space Complex (TTMTR)
Object type
Payload
Rocket body
Debris
Shape & HBR
Cyl, 4.0 m
Radar Cross Section
26.008 m², Large (>1 m²)

Expand to show TLE details & history
Last TLE update: 2 days ago

TLE from 2 days ago
0 BLOCK DM-SL R/B
1 44904U 19095B   26266.40512165 -.00000129  00000-0  00000-0 0  9994
2 44904   5.5687  72.1669 0069697 278.4672  80.9916  1.02972245 25404
Epoch: 2026-09-23T09:43Z
TLE epoch observation values (Epoch: 2026-09-23T09:43:22.510Z)
Latitude
0°
Longitude
-75.70651°
Altitude
35,001.766 km
Speed
3.105 km/s
True Right ascension
04h 49m 34s
True Declination
0° 00' 00"
Sunlit
Object was in daylight at epoch
Visualization orbit readout
Latitude
Unknown
Longitude
Unknown
Altitude
Unknown
Speed
Unknown
Apparent Right ascension
Unknown
Apparent Declination
Unknown
Sunlit
N/A
Visualization observer readout
Local Sidereal Time
15:16:19
Azimuth
Unknown
Elevation
Unknown
Doppler factor
Unknown
Orbital elements
Apogee altitude
35,335.947 km
Perigee altitude
34,758.502 km
Semi-major axis
41,425.362 km
Eccentricity
0.00697
Inclination
5.5687°
RAAN
72.1669°
Arg. of periapsis
278.4672°
True anomaly
81.78147°
Mean anomaly
80.9916°
Eccentric anomaly
81.38643°
Mean motion
0.25742 °/min
Orbital period
1,398.49 mins
BSTAR
0
Loading maneuver chart data...
Computing Atmospheric mass density...
Loading historical data...
Loading historical data...
Loading historical data...
Loading historical data...
Loading historical data...
Loading historical data...
Loading historical data...
Other satellites on launch #95 in the year 2019 (2019-12-24 UTC)

Documentation

Showing up to 5 results
|